Regional Weather Roundup
Issued by NWS Midland/Odessa, TX

Skip options and go directly to product.
Home | Oldest Version | Previous Version | Current Version | All | Text Only | Save Text | Print | Product List | Glossary Off

Skip product version selection by date and time.   

726
ASUS44 KMAF 230910
RWRMAF
MIDLAND AREA WEATHER ROUNDUP
NATIONAL WEATHER SERVICE MIDLAND TX
400 AM CDT THU OCT 23 2014

...IN SOUTHWEST TEXAS AND SOUTHEAST NEW MEXICO...

CITY           SKY/WX    TMP DP  RH WIND       PRES   REMARKS
ALPINE         CLEAR     57  56  94 SW6       30.24S
ANDREWS        FAIR      55  54  98 S3        30.13S FOG
ARTESIA        NOT AVBL
BIG SPRING     CLEAR     58  55  89 CALM      30.14F
CARLSBAD       CLOUDY    60  57  89 S7        30.10F FOG
DRYDEN           N/A     63  61  93 SE5       30.11F
FORT STOCKTON  CLEAR     58  57  97 S7        30.11S
GUAD PASS      CLEAR     56  54  93 W14       30.22F
HOBBS          FOG       55  55 100 S8        30.14F VSB<1/4
MARFA          CLOUDY    57  57 100 SW5       30.23S
MIDLAND AIRPK  CLEAR     57  54  89 SE5       30.13S
MIDLAND INTL   CLEAR     54  52  93 SE6       30.12S
ODESSA         CLEAR     57  54  89 S5        30.13R
PECOS          CLEAR     58  57  94 CALM      30.10S FOG
PRESIDIO       FAIR      63  59  87 N5        30.12F
SEMINOLE       FOG       55  55  98 CALM      30.14F VSB 1/4
SNYDER         MOCLDY    59  56  90 CALM      30.14S
WINK           CLEAR     58  57  97 E3        30.10S
$$
...OTHER STATIONS IN TEXAS...

CITY           SKY/WX    TMP DP  RH WIND       PRES   REMARKS
ABILENE        CLOUDY    62  56  80 S6        30.12F
AMARILLO       MOCLDY    59  58  96 S14       30.11S
AUSTIN         CLOUDY    64  62  93 CALM      30.09S
BROWNSVILLE    MOCLDY    70  67  90 N5        30.00F
CORPUS CHRISTI PTCLDY    69  64  84 N6        30.04S
DALLAS FTW     CLOUDY    66  54  65 SE6       30.12R
DEL RIO        PTCLDY    64  63  96 CALM      30.08F FOG
EL PASO        PTCLDY    60  53  77 CALM      30.14S
HOUSTON INT    MOCLDY    63  57  81 N3        30.09S
LUBBOCK        CLEAR     54  52  93 S5        30.13F
SAN ANGELO     CLOUDY    57  54  89 S3        30.12S
SAN ANTONIO    LGT RAIN  68  65  90 NW7       30.12R
WACO           CLOUDY    65  59  81 SE5       30.10S
WICHITA FALLS  NOT AVBL
$$
...OTHER LOCATIONS IN NEW MEXICO...

CITY           SKY/WX    TMP DP  RH WIND       PRES   REMARKS
ALAMAGORDO     NOT AVBL
ALBUQUERQUE    CLEAR     55  44  66 SE3       30.21S
CANNON AFB     FOG       54  54  98 SW3       30.14F VSB 1
CLOVIS         CLOUDY    57  55  94 SW9       30.16F
HOLLOMAN AFB   CLEAR     53  48  85 CALM      30.15S
ROSWELL        FOG       59  59 100 S9        30.12S VSB 1/4
RUIDOSO        CLEAR     48  41  76 W7        30.29S
SANTA FE       CLEAR     45  36  70 N10       30.24S WCI  40
TRUTH OR CONSE CLEAR     56  48  74 W7        30.18S
TUCUMCARI      CLEAR     59  55  87 SW9       30.09S
$$

USA.gov is the U.S. government's official web portal to all federal, state and local government web resources and services.